Wind_Speed
8 8 8 8 8 8 8 8 9 10 9 10 11 11 11 11 12 12 13 13 14 15 15 15 15 15 15 15 14 14 13 13 12 11 10 10 10 10 10 10 9 9 9 10 10 11 10 9 8 8 9 9 9 9 9 9 10 11 12 14 15 15 15 14 13 13 12 12 11 10 9 9 8 7 6 6 5 5 4 4 4 4 3 3 3
7 8 8 7 7 7 8 8 9 9 9 10 10 10 11 11 12 12 13 13 14 14 14 15 15 15 15 15 14 14 14 13 12 12 11 10 10 10 10 10 10 10 9 10 10 11 11 11 11 9 9 8 7 8 8 8 9 11 11 12 13 15 16 15 15 14 13 13 12 12 11 10 9 8 7 6 6 6 5 5 5 4 4 4 3
7 7 6 6 7 7 7 8 8 8 9 9 9 10 11 11 12 12 12 13 13 13 13 13 13 14 14 15 15 15 14 14 13 12 11 10 10 10 10 10 10 10 9 9 9 10 11 11 12 11 9 9 9 8 9 9 9 11 12 11 10 11 12 14 16 17 16 15 14 13 12 11 10 9 8 7 7 7 6 6 6 5 5 5 5
6 5 5 5 6 7 7 7 7 8 9 9 10 10 11 11 11 12 12 12 12 12 12 12 12 12 13 13 14 14 14 14 14 14 13 12 11 10 10 10 10 10 9 9 9 10 11 12 13 14 13 13 11 10 11 12 11 12 14 13 11 9 10 11 13 16 17 17 16 15 13 12 12 10 9 9 8 8 8 8 7 6 6 6 6
5 4 4 5 6 7 7 7 7 8 9 9 10 10 11 11 11 12 12 12 12 12 12 11 11 11 11 12 12 13 14 14 14 15 14 13 12 11 10 10 10 10 10 9 9 9 10 11 13 15 15 13 12 11 12 13 13 13 13 13 11 10 9 9 10 13 16 18 17 16 15 14 13 12 11 10 9 9 9 9 8 7 7 6 6
4 4 5 6 7 7 7 7 7 8 9 9 10 10 11 12 12 12 12 12 12 12 12 12 12 11 11 11 11 12 13 13 14 15 15 15 13 12 11 10 10 10 10 10 10 9 10 11 12 13 14 14 13 12 12 12 12 13 13 12 12 10 8 8 9 10 13 16 18 16 15 15 15 14 13 12 11 10 10 10 10 9 8 7 7
5 5 6 6 7 7 7 8 8 8 9 9 10 11 12 12 12 13 13 13 13 13 13 13 12 12 11 10 10 10 11 12 13 14 15 15 14 13 11 10 10 9 10 10 10 10 10 11 12 12 13 13 13 12 11 11 12 12 12 12 12 11 9 8 8 9 10 13 16 17 16 16 16 15 15 14 13 12 12 11 11 10 10 9 8
5 5 6 6 6 7 7 8 8 9 9 10 11 12 12 13 13 13 13 13 13 13 13 13 13 12 11 11 10 10 10 11 12 13 14 14 14 14 12 11 10 10 10 10 10 10 11 12 12 11 11 12 13 13 12 11 11 12 12 13 12 11 10 9 8 8 8 9 11 15 16 17 17 17 16 16 16 15 14 13 12 12 11 11 9
4 5 6 6 6 7 7 8 8 9 10 11 11 12 13 13 13 13 13 13 13 13 13 13 13 12 12 11 11 10 10 11 12 13 13 13 13 13 12 11 11 11 11 10 10 10 11 12 12 12 12 12 13 13 13 12 11 11 12 12 12 11 10 9 8 7 7 7 8 11 14 16 18 19 19 18 17 17 16 15 14 13 12 11 11
4 5 6 7 7 8 8 9 9 10 11 12 12 12 13 13 13 13 14 13 13 12 12 12 12 12 12 12 11 11 11 11 12 13 13 13 13 13 12 11 11 10 11 11 10 9 10 11 12 12 12 12 13 13 13 12 11 10 11 11 12 12 11 9 7 6 6 6 7 8 10 12 14 16 19 20 20 18 18 17 15 14 13 12 12
5 6 7 7 8 9 10 11 11 11 12 13 13 13 13 13 14 14 14 14 13 12 12 12 12 12 12 12 12 12 12 11 12 13 13 13 13 12 12 11 10 10 9 10 11 10 10 11 11 12 13 13 13 13 13 13 12 11 10 10 10 11 11 11 9 7 6 6 6 7 8 10 11 13 16 19 21 21 19 19 17 16 14 14 13
6 7 8 9 10 11 12 13 13 13 13 13 14 14 14 14 14 14 14 13 12 11 11 12 12 12 12 12 11 11 12 12 12 13 13 13 13 12 12 11 10 10 9 9 10 10 10 11 11 12 12 13 13 13 13 13 13 12 12 10 10 10 10 11 10 9 8 7 8 8 8 9 10 11 13 16 19 22 22 20 19 18 16 15 15
8 8 10 11 12 12 13 14 14 14 13 13 14 14 13 13 13 13 13 12 12 11 11 11 12 12 13 13 12 11 11 12 12 13 14 14 14 13 12 12 11 10 9 9 9 10 11 11 12 12 12 12 12 12 12 12 13 13 13 11 9 8 9 10 11 11 9 9 9 9 10 10 10 11 11 13 15 19 22 22 21 20 19 18 17
9 10 12 13 14 14 15 15 15 14 14 14 14 14 14 13 13 13 13 12 11 11 10 11 11 12 13 13 13 12 12 12 13 13 14 14 14 14 14 13 12 10 9 9 9 10 10 11 11 12 12 11 11 11 11 11 12 13 13 10 8 7 7 8 10 12 11 11 11 11 11 12 13 12 12 12 12 14 18 21 23 23 22 21 20
11 12 13 14 15 15 15 15 14 14 14 14 14 15 15 15 14 14 14 13 13 12 11 10 11 11 12 13 13 14 14 13 13 13 14 15 15 15 15 14 13 12 9 9 9 9 10 10 11 11 11 10 10 10 10 10 11 11 10 8 7 6 7 8 9 11 12 12 12 12 12 13 14 15 14 14 13 13 14 17 20 23 24 24 23
12 13 13 14 14 15 15 15 14 13 13 14 15 16 17 17 17 17 16 16 15 15 13 12 11 11 12 13 14 14 14 14 14 13 14 15 15 15 16 15 14 13 11 10 9 8 8 9 10 11 11 10 10 10 9 9 9 9 8 7 7 8 8 9 10 11 12 13 12 12 12 13 14 15 16 16 16 16 15 16 17 20 23 25 26
12 13 13 14 14 15 15 15 14 13 13 14 15 16 17 18 19 19 18 18 17 17 16 15 13 12 13 13 13 14 14 14 14 13 13 14 15 15 15 15 14 13 12 11 11 11 9 9 9 10 11 10 10 10 9 9 8 8 8 9 9 10 11 12 12 13 13 13 13 12 12 12 13 14 15 17 18 18 18 18 18 18 20 23 26
13 13 14 14 15 15 15 14 13 13 13 14 15 17 18 19 19 19 19 18 18 18 18 17 16 14 13 13 13 14 14 15 14 14 14 14 15 15 15 15 14 13 12 10 11 12 11 10 9 9 10 10 10 10 9 9 8 8 9 10 11 12 13 14 14 14 14 15 14 13 12 12 12 13 13 15 17 18 19 20 20 20 21 21 23
13 13 14 15 15 15 15 14 13 13 14 15 16 18 19 19 19 19 19 18 18 17 18 18 17 16 15 15 14 14 14 15 15 15 14 14 14 14 14 15 15 12 12 11 11 13 13 11 10 9 9 9 9 9 8 8 9 8 9 10 11 12 13 14 15 15 16 16 16 15 13 13 13 13 13 14 15 17 18 20 21 22 23 23 23
13 14 15 15 16 15 15 14 13 14 15 16 17 18 18 19 19 19 19 18 18 17 18 18 18 17 17 16 16 15 15 15 16 16 16 15 14 13 13 15 16 14 13 13 13 13 14 12 11 9 8 9 10 9 8 8 9 9 9 10 10 11 13 13 15 16 16 17 17 17 16 15 15 15 14 14 14 15 17 18 20 22 24 25 25
13 14 15 15 15 15 14 13 13 14 14 16 17 17 17 18 18 18 18 18 18 18 18 18 18 18 18 18 17 17 16 16 17 17 17 17 16 14 13 14 17 17 15 15 14 14 13 11 11 11 10 9 9 9 9 9 9 10 10 10 11 12 13 14 15 16 17 18 18 18 17 17 16 16 16 16 16 16 16 17 18 20 22 24 25
12 13 14 15 15 15 14 13 13 14 15 15 16 16 17 17 17 18 18 18 18 18 18 18 18 18 18 18 18 18 17 17 17 18 18 19 17 16 15 14 15 16 16 15 14 14 14 11 10 12 12 10 9 8 9 11 12 12 12 12 12 13 13 14 16 17 18 19 20 20 20 19 18 18 18 18 18 18 18 18 18 18 20 21 23
12 13 14 14 15 14 14 13 13 14 15 16 17 18 18 18 18 18 18 19 19 19 19 18 19 19 18 18 18 18 18 18 18 19 19 20 19 18 17 15 15 15 15 15 14 13 13 13 11 10 8 9 9 10 11 12 14 14 15 15 15 15 16 17 18 19 20 21 21 22 23 23 22 21 21 22 22 22 21 21 21 20 20 20 21
12 12 13 14 14 14 14 14 14 14 15 16 17 18 19 19 20 20 20 20 20 20 20 20 19 19 19 19 19 19 19 19 19 19 20 21 21 19 18 16 15 13 13 14 14 13 10 10 10 8 6 7 8 10 11 13 15 16 17 18 18 19 19 20 21 22 23 24 24 24 24 25 25 25 25 25 25 25 24 23 23 23 22 22 21
12 12 12 12 13 14 15 15 15 16 17 17 17 18 19 19 20 21 22 22 22 22 22 22 21 20 20 20 20 19 19 19 20 20 20 21 21 21 19 17 15 13 12 11 11 12 10 9 10 10 9 9 10 11 13 15 17 18 20 21 21 21 21 22 23 25 25 26 26 26 25 26 26 27 27 26 26 26 26 25 24 24 24 23 23
12 12 12 11 12 14 16 17 17 18 19 20 19 18 19 20 21 22 23 23 23 24 24 24 23 23 22 22 22 21 21 21 21 21 21 21 22 22 21 20 18 16 15 14 12 11 11 11 12 14 14 15 15 15 17 18 20 22 23 24 24 23 24 24 24 25 26 28 28 27 26 26 26 27 27 27 27 27 27 27 26 26 25 25 24
11 11 12 12 13 15 16 16 16 17 18 19 18 18 20 22 23 23 23 24 24 24 24 24 25 25 25 25 25 24 23 23 23 22 22 23 23 23 23 22 21 20 20 19 18 16 15 15 16 17 19 20 21 21 21 22 23 24 25 25 25 26 26 25 24 25 26 28 29 29 28 27 27 27 28 28 28 28 28 28 27 27 27 27 26
11 11 12 13 14 14 13 14 15 16 17 18 18 18 19 22 23 24 24 24 24 23 22 23 24 25 25 26 26 25 25 24 24 24 24 25 25 24 24 24 23 23 23 23 23 21 20 20 19 21 22 23 23 24 25 25 24 24 25 25 26 27 26 26 27 29 29 29 29 30 30 29 28 28 28 29 28 28 28 28 28 28 29 29 29
11 11 12 13 14 13 12 13 15 16 17 18 19 19 19 21 23 24 25 26 26 24 22 21 22 23 24 25 26 26 26 26 26 26 27 27 26 25 24 25 24 24 24 25 25 24 23 23 22 23 24 25 25 26 27 26 25 25 24 25 27 28 27 28 31 33 32 30 30 31 31 31 30 30 30 31 30 30 29 29 29 29 30 31 31
10 10 10 11 13 13 13 14 16 18 19 19 20 20 21 22 23 25 27 28 29 27 24 23 23 23 24 25 25 26 26 27 28 29 30 29 28 26 25 24 24 24 24 26 27 27 25 25 24 24 24 25 26 26 26 26 26 26 26 27 29 30 30 32 33 33 33 32 30 31 32 32 32 31 31 31 31 31 31 30 29 30 31 31 31
10 10 11 12 13 14 14 16 18 19 20 21 21 22 22 23 25 26 28 29 30 29 27 24 23 24 25 25 25 25 24 25 27 29 29 28 27 27 26 25 24 24 24 25 27 28 27 27 28 27 26 26 27 27 27 27 28 28 28 29 31 33 35 36 36 35 33 32 30 30 31 32 32 31 30 30 30 30 31 30 29 28 29 29 29
10 11 12 13 14 15 16 17 19 20 21 22 23 23 24 25 26 27 29 30 30 30 29 26 25 25 25 25 25 25 25 25 26 27 27 26 26 26 26 26 25 25 25 25 26 28 28 28 29 29 28 28 29 28 28 28 29 29 29 31 32 35 37 39 38 37 35 33 31 30 30 31 31 31 30 29 29 29 30 30 29 28 28 29 31
9 11 12 13 15 16 18 19 20 21 22 23 23 24 26 27 27 29 30 32 32 32 30 29 27 26 25 25 27 28 28 26 26 26 26 26 27 26 26 26 26 26 26 25 26 27 28 29 29 29 29 29 30 29 29 29 29 29 29 31 33 36 38 40 40 39 38 36 34 33 32 31 32 32 31 31 31 30 31 31 31 31 30 31 32
9 10 12 14 16 18 19 20 21 22 23 24 24 26 27 29 29 29 31 33 34 33 32 30 28 26 25 26 28 29 29 28 26 26 26 27 27 27 27 27 28 28 27 27 27 27 29 29 29 29 29 29 30 30 30 29 29 29 30 32 35 37 38 39 40 41 41 40 39 37 35 34 34 34 34 33 33 32 32 33 33 33 33 32 33
10 11 13 15 17 19 20 21 22 23 24 26 27 28 30 31 30 30 32 33 34 34 32 31 28 26 26 27 29 30 30 29 28 27 27 28 29 29 28 28 29 30 29 29 29 29 29 30 30 29 29 29 30 30 30 30 30 29 31 33 36 38 39 39 40 42 43 43 43 42 41 40 38 38 37 36 36 35 35 35 34 34 34 34 35
11 13 15 16 18 19 21 22 24 26 27 29 30 32 32 33 33 32 32 33 35 35 33 31 30 28 27 28 30 31 31 30 30 29 29 29 29 30 30 30 30 30 31 31 31 30 29 30 30 30 30 30 30 30 30 30 30 31 33 36 38 40 41 41 41 42 44 45 46 47 46 44 43 42 41 41 40 40 39 38 38 37 37 37 37
11 14 15 16 17 19 21 23 26 28 30 31 33 34 34 34 34 33 32 33 35 36 35 33 31 30 29 29 30 31 32 32 32 32 31 30 30 31 32 32 32 32 32 32 32 31 30 30 30 30 31 31 31 31 30 30 30 32 36 39 40 42 42 43 42 42 44 46 48 49 48 46 45 45 45 44 44 44 43 43 42 42 42 41 41
10 12 14 16 17 19 21 24 26 28 31 33 35 36 35 36 36 34 33 34 35 38 38 35 32 31 30 29 30 31 33 33 34 33 33 32 32 32 33 34 35 35 35 34 33 32 31 30 31 31 32 33 32 31 31 30 30 33 37 40 41 42 42 42 43 43 44 46 47 48 48 47 46 46 46 46 46 46 46 46 46 46 46 46 46
9 11 14 17 19 21 23 25 27 29 32 34 36 37 36 37 38 36 35 35 36 39 40 39 36 33 31 30 30 32 34 35 35 34 34 34 34 34 35 36 37 37 36 35 34 33 32 33 33 33 34 34 33 32 32 30 30 33 37 39 41 43 44 43 42 44 46 47 48 47 47 46 47 47 47 47 47 47 47 48 48 49 49 50 50
11 14 16 19 22 24 26 28 29 30 33 36 38 39 39 39 39 38 38 38 38 40 42 42 41 37 34 33 33 33 35 37 36 35 34 35 35 36 37 37 37 37 36 35 34 34 34 35 36 36 36 36 36 36 34 32 32 36 40 42 42 44 45 44 44 45 47 48 49 48 47 47 47 48 49 49 49 48 48 48 49 49 50 51 51
16 18 19 21 24 26 29 31 32 33 35 38 40 42 42 42 42 41 41 42 40 41 43 43 42 41 38 35 34 35 36 38 38 36 35 36 38 39 39 38 37 37 36 36 35 35 36 37 38 39 39 39 40 40 39 36 36 39 45 48 46 45 45 45 45 46 47 48 49 49 49 49 49 50 50 50 50 50 50 50 50 50 51 51 50
18 20 21 22 25 27 29 31 33 34 37 39 41 43 45 47 47 46 45 44 42 41 43 41 39 40 38 35 35 36 38 39 40 38 38 39 40 40 40 40 40 39 38 37 37 37 37 38 39 40 41 41 43 43 43 41 40 43 49 52 50 47 45 45 45 45 47 49 50 50 50 51 52 51 51 50 50 50 50 49 49 50 50 50 49
19 21 21 23 25 27 27 29 32 35 38 41 42 44 47 49 49 47 44 42 41 42 42 39 37 37 36 34 36 37 38 39 40 39 39 41 42 43 43 42 42 42 41 40 39 38 38 39 41 43 43 43 43 43 43 43 44 47 52 52 50 48 46 44 45 46 49 51 52 52 52 52 52 50 49 49 49 49 48 48 48 48 48 49 48
20 22 22 24 26 27 28 29 32 35 38 41 44 45 47 48 47 44 41 40 41 42 41 38 34 33 33 34 36 37 38 39 40 39 39 40 43 46 47 45 45 44 43 43 42 40 40 42 44 45 42 40 40 41 41 42 45 48 51 51 50 49 48 48 49 50 52 52 52 51 50 48 47 46 46 47 47 47 47 47 47 47 47 47 46
23 24 24 26 28 30 30 31 34 37 39 42 45 46 48 49 47 43 41 40 39 40 39 36 33 32 33 35 36 36 38 40 41 42 41 40 42 46 49 48 47 45 43 42 43 42 43 45 44 42 40 40 42 42 40 41 44 46 48 49 49 49 49 50 52 52 52 52 51 50 48 44 43 43 42 43 44 45 45 46 47 47 47 46 46
26 26 27 28 31 32 32 33 36 39 41 43 45 46 48 50 48 44 40 39 38 38 37 35 34 33 34 37 38 38 39 41 42 42 41 42 44 48 51 47 42 39 38 38 40 42 43 43 41 40 41 43 42 40 39 41 43 45 46 47 48 50 51 52 52 52 51 50 50 48 44 41 40 39 39 40 42 43 44 45 46 46 45 45 44
29 29 29 30 33 34 35 36 38 41 42 43 45 46 48 50 48 43 40 39 37 36 36 35 36 36 37 39 40 40 40 41 43 43 42 43 45 48 50 44 36 34 35 36 38 40 40 39 39 41 43 43 41 40 41 42 43 44 46 47 49 51 52 52 51 49 47 46 46 44 39 37 37 37 37 39 41 42 43 43 43 43 43 43 43
31 31 31 33 35 36 37 38 40 42 43 44 45 46 47 49 46 42 40 39 37 36 37 37 38 38 39 41 41 40 40 41 42 42 42 44 45 45 44 40 35 35 37 38 38 39 39 39 41 43 43 43 42 42 42 43 44 46 47 48 49 51 51 50 48 45 43 41 40 39 36 35 36 37 37 39 40 41 41 40 40 41 42 43 43
34 34 34 36 37 38 38 40 41 43 44 45 45 46 47 48 47 44 43 41 39 38 39 40 41 41 40 41 41 40 39 39 41 43 43 43 42 39 37 36 37 39 41 40 39 39 40 42 43 44 43 43 43 43 44 45 46 47 48 49 50 50 50 48 45 42 39 37 37 38 36 35 37 38 37 38 38 38 38 38 38 40 42 43 44
37 37 39 40 40 39 40 42 42 43 44 45 46 47 47 47 47 46 45 43 40 40 41 42 43 43 42 41 41 39 38 38 40 41 39 36 34 34 35 37 40 43 44 43 41 41 43 45 45 45 45 44 45 46 46 47 47 48 49 49 49 49 47 44 41 38 35 34 36 38 37 36 37 38 37 36 35 36 36 37 38 39 41 42 43
41 42 43 43 42 42 43 43 43 43 44 45 47 47 47 47 47 47 46 44 42 42 42 43 45 45 43 42 42 41 40 39 37 34 33 35 36 37 39 40 42 44 45 44 44 45 46 46 46 45 45 45 46 46 47 48 49 49 50 49 47 45 42 39 37 35 33 34 37 39 38 37 37 38 38 37 36 35 35 36 37 38 39 41 41
Wind_Direction
91 82 75 68 63 61 61 58 57 57 51 44 43 41 36 33 32 28 26 24 21 20 20 20 19 18 20 22 21 20 24 25 21 20 19 14 9 3 0 360 2 5 360 354 352 351 351 347 335 312 292 283 286 292 298 301 293 275 256 247 245 244 244 245 247 249 251 253 254 253 251 249 246 243 242 247 255 257 260 269 279 293 311 323 314
84 77 74 69 64 58 53 50 52 53 50 44 40 36 33 30 27 23 21 20 18 16 15 14 13 13 13 14 14 13 15 18 17 15 13 11 7 359 355 356 358 1 358 352 348 347 347 347 346 335 319 316 321 316 309 303 293 282 268 257 253 253 254 256 258 259 260 260 260 260 259 258 256 254 251 250 255 262 265 269 276 284 292 302 300
79 74 70 62 58 54 46 42 41 43 43 41 36 31 28 25 21 17 15 14 12 11 10 10 9 9 8 7 7 7 7 10 11 10 9 8 5 359 352 351 351 352 354 350 343 341 341 343 341 339 348 0 351 328 307 297 289 288 288 285 277 268 265 262 260 260 260 260 261 263 264 265 266 266 264 261 261 265 270 272 276 284 291 298 300
83 72 63 56 54 52 49 43 34 32 32 30 27 23 21 20 17 13 11 8 5 4 4 5 5 5 5 3 1 1 2 4 5 4 5 5 2 358 352 346 344 345 347 346 342 338 335 337 337 339 1 19 7 344 330 327 322 312 306 304 301 290 281 273 264 259 256 256 256 258 260 263 265 266 266 266 264 265 269 272 273 274 283 292 295
79 68 53 47 46 44 44 40 32 26 24 22 20 15 12 13 11 9 7 3 1 359 358 359 1 2 2 360 359 358 358 359 0 360 1 2 360 357 353 348 343 340 339 338 338 336 332 333 334 337 354 11 11 4 357 352 347 336 325 320 319 311 298 286 277 267 258 253 251 253 255 258 261 261 262 263 262 262 263 268 271 269 269 277 285
56 50 41 35 32 29 28 26 22 18 15 13 9 5 4 4 2 2 1 357 356 357 355 355 357 358 358 357 357 356 355 355 356 357 358 358 357 355 354 350 344 337 333 332 332 333 331 331 332 334 344 356 1 8 8 0 355 347 340 338 338 336 326 305 291 283 268 253 248 249 253 256 258 259 258 257 257 257 257 259 264 268 267 266 273
35 32 30 29 27 20 14 10 8 7 4 1 356 354 355 354 353 355 355 352 352 352 352 351 352 353 353 352 353 353 352 352 353 356 356 355 353 352 352 348 344 337 329 328 329 331 329 329 332 332 338 346 350 357 3 360 354 347 343 344 346 346 346 337 315 298 282 261 248 247 249 251 254 256 257 257 256 255 254 253 255 260 265 265 265
31 26 21 20 21 13 2 358 356 353 350 348 345 344 345 346 347 349 349 348 347 347 347 346 347 349 347 346 347 349 348 349 352 355 355 353 350 349 349 345 342 338 333 332 331 328 324 325 331 332 334 337 338 344 352 355 351 345 341 341 342 343 346 350 343 322 299 279 258 250 250 251 251 252 254 256 256 254 253 252 251 252 257 263 264
24 21 14 7 4 2 353 346 344 341 337 336 335 335 336 339 341 342 342 343 343 342 341 341 343 344 341 342 344 343 343 345 349 353 352 351 348 345 344 342 341 339 337 334 328 324 320 322 328 328 328 329 329 334 342 346 346 342 338 334 335 336 338 342 348 343 326 304 280 264 259 258 257 254 252 252 253 253 253 252 252 250 251 257 262
15 9 4 357 350 347 340 334 332 330 327 325 326 327 328 331 333 335 337 337 338 338 337 337 338 338 337 340 342 341 342 343 345 347 349 348 345 342 339 337 337 336 335 330 326 324 319 317 321 321 321 324 325 328 332 335 337 337 333 330 328 327 328 329 335 341 338 326 308 291 279 272 267 262 255 251 249 250 251 252 252 251 250 251 255
5 356 352 347 339 336 331 325 323 321 319 318 320 321 323 326 328 331 332 330 330 332 333 334 334 333 334 336 338 340 341 343 342 342 345 346 343 341 336 332 331 330 330 327 324 321 316 313 315 316 317 320 321 322 323 324 327 330 329 326 323 320 318 319 320 322 323 321 313 305 298 290 282 276 267 257 250 248 249 251 251 252 252 250 250
350 346 340 334 330 328 324 321 319 318 317 316 317 320 322 323 325 326 324 322 322 324 327 331 330 329 329 331 334 337 337 339 339 340 342 341 340 340 336 332 328 324 323 321 318 316 315 315 313 312 313 314 314 315 316 318 320 323 323 321 318 315 313 313 314 316 312 306 299 295 294 292 288 285 281 270 256 248 247 249 251 251 252 252 250
339 336 328 322 321 321 319 318 318 319 320 319 319 319 320 320 320 317 314 314 316 317 319 323 325 325 326 326 328 329 331 334 336 337 338 337 336 336 335 334 328 321 318 317 314 314 315 314 312 310 309 309 309 309 309 311 315 317 317 316 311 309 311 313 314 314 310 303 296 291 288 286 287 287 287 283 270 256 250 250 251 251 251 251 249
332 326 319 317 317 316 315 315 317 320 322 321 320 319 319 318 315 311 310 311 313 310 310 315 320 323 323 323 322 323 325 329 332 334 333 333 332 330 332 335 330 323 319 315 312 312 313 312 310 308 307 307 307 308 307 308 311 314 315 312 308 306 311 316 317 315 313 308 302 295 290 286 284 285 284 283 279 269 260 255 253 251 251 251 249
328 322 319 318 317 316 314 312 314 318 322 322 322 322 322 321 319 318 317 316 315 312 309 310 315 318 319 319 320 320 321 324 327 330 329 328 328 326 329 332 327 324 320 313 309 310 312 312 310 307 302 301 303 305 305 307 310 313 313 309 303 305 311 316 316 314 313 311 308 301 295 289 285 282 281 279 277 273 269 264 258 253 250 250 250
327 325 324 323 321 320 316 313 314 316 319 321 324 326 326 325 326 325 323 320 319 317 314 311 310 313 314 316 317 317 318 320 322 326 325 323 324 324 327 328 323 322 320 315 310 309 310 308 307 306 300 296 295 297 299 302 307 309 306 299 295 299 306 311 313 311 308 307 308 306 301 296 289 284 281 278 275 271 268 266 263 258 253 250 250
328 328 328 326 325 323 321 318 317 316 316 318 321 324 325 326 328 326 323 321 320 318 315 312 308 308 309 310 313 313 314 315 316 320 319 318 320 322 326 326 322 319 318 318 316 315 315 309 304 301 298 297 294 293 295 298 300 299 293 286 286 290 295 302 307 306 303 300 300 302 302 299 294 289 284 279 276 273 269 266 263 261 258 254 251
328 330 330 330 329 328 326 324 321 317 314 315 317 319 321 323 325 323 321 319 318 316 312 309 305 301 301 302 305 307 309 310 310 312 314 314 316 320 325 327 326 324 322 325 325 320 320 317 309 301 297 298 299 298 300 301 299 294 288 285 283 285 289 294 299 300 298 293 290 291 293 295 294 292 289 285 281 277 274 269 265 261 259 258 254
327 331 333 334 334 333 331 328 323 318 315 314 316 318 320 322 321 320 318 316 314 312 309 306 302 299 297 297 299 301 303 305 305 306 309 310 313 317 322 324 327 328 326 332 335 326 323 319 312 309 304 300 300 302 303 304 305 301 296 291 288 287 288 291 294 296 296 291 285 283 284 287 289 290 289 288 286 283 279 274 269 264 260 258 256
326 331 334 335 335 336 334 329 325 320 317 316 317 320 321 321 321 320 319 316 313 311 308 305 301 298 298 297 298 299 300 301 303 305 306 307 310 314 315 319 323 324 320 324 328 326 328 324 316 316 318 311 308 311 312 310 308 308 307 303 297 293 292 293 294 294 295 293 287 282 280 281 283 285 286 287 287 286 284 280 275 270 264 259 256
324 328 331 331 331 332 331 329 326 323 321 321 321 322 322 322 322 321 320 316 313 311 309 307 304 301 299 298 298 297 299 300 303 305 306 306 308 310 310 313 317 316 315 315 316 318 323 324 320 319 323 321 317 320 324 326 324 322 320 316 309 303 299 298 297 296 295 293 290 286 282 280 280 282 284 286 287 287 286 285 282 277 271 265 259
320 323 324 323 323 325 326 325 325 324 323 323 322 323 323 322 321 320 318 316 314 312 310 309 307 305 301 298 297 297 298 300 303 305 306 306 308 308 306 307 309 309 311 314 315 314 312 312 314 316 322 327 328 333 335 334 334 332 329 324 318 312 308 304 302 299 296 293 290 288 285 281 279 279 281 284 286 287 287 287 286 283 278 273 266
314 316 315 316 318 322 324 325 325 325 323 323 323 324 324 322 319 317 315 313 313 312 311 310 308 306 303 299 297 296 298 300 303 305 307 306 307 307 306 306 308 309 311 315 318 318 314 310 309 313 322 331 335 339 340 335 331 329 327 323 319 316 313 310 306 303 299 295 290 287 284 282 279 277 277 280 282 283 284 285 285 285 282 278 273
305 308 309 313 319 323 325 324 322 320 318 319 320 320 319 317 315 314 312 311 310 310 310 309 309 307 305 301 297 296 297 298 300 303 305 305 305 305 304 304 305 307 308 311 314 317 320 314 309 312 321 327 331 331 332 331 328 326 324 322 319 316 312 309 306 304 301 298 293 288 284 281 279 278 277 277 278 280 280 281 282 283 282 281 277
300 304 307 311 319 322 321 320 318 318 318 318 318 318 318 318 317 314 311 309 307 306 306 306 306 306 305 302 299 296 294 295 297 299 302 303 304 303 301 298 298 298 297 298 300 307 314 313 306 306 310 313 317 319 322 324 324 323 322 320 318 315 312 309 306 304 302 298 294 289 284 280 278 278 277 276 276 277 277 278 278 279 280 280 279
299 302 302 307 316 320 320 321 323 324 323 321 321 322 322 323 323 321 318 313 307 303 301 301 302 302 303 303 301 298 295 294 295 297 299 300 300 299 297 295 294 293 292 291 289 288 294 299 300 302 305 307 310 312 316 318 318 318 317 317 317 315 313 312 310 307 303 299 295 290 285 281 278 277 276 274 273 274 275 275 276 276 277 277 277
296 297 298 305 316 322 324 327 331 333 331 330 327 325 323 324 328 329 327 324 320 313 305 300 299 300 300 302 302 299 295 294 293 293 296 298 297 296 296 295 294 294 295 294 291 285 280 281 286 292 296 300 302 305 308 310 312 312 311 311 311 312 313 313 313 312 307 301 296 291 287 283 281 279 277 274 272 271 271 271 272 274 275 275 275
290 293 299 307 316 322 326 330 334 338 339 338 336 332 329 329 332 333 332 332 335 332 320 309 304 302 301 302 303 299 292 290 290 290 291 295 295 293 293 294 295 297 298 297 294 291 287 283 283 285 287 290 294 296 299 301 303 305 306 307 309 312 317 319 319 317 312 304 296 291 288 285 283 281 280 277 274 271 270 270 270 271 273 273 273
291 296 301 306 314 321 326 327 331 335 337 338 339 338 336 334 333 332 333 334 338 339 333 324 317 312 308 307 307 303 293 287 287 287 288 291 291 288 288 291 294 296 299 299 297 295 292 289 287 285 286 287 289 290 292 295 298 300 303 307 312 318 322 322 319 316 312 306 298 291 286 284 283 282 282 281 279 275 272 270 270 270 270 270 271
298 300 301 307 317 324 326 326 328 332 335 337 338 338 335 333 331 329 329 330 332 334 333 328 322 316 311 308 309 307 299 291 288 288 287 287 285 283 283 285 289 292 296 298 298 296 294 292 290 288 287 287 287 289 292 296 298 300 305 311 317 321 322 321 318 314 311 306 299 291 286 282 281 282 283 284 284 281 276 271 269 268 267 267 267
299 300 303 310 319 323 325 327 329 331 334 335 336 335 332 329 327 326 325 326 327 328 329 326 322 317 311 306 305 307 304 298 295 292 288 284 281 280 280 281 284 288 292 296 297 296 295 294 293 293 293 292 292 293 296 298 300 302 305 310 316 319 320 318 316 314 311 306 299 291 286 282 280 280 281 283 285 285 281 276 271 268 266 266 266
296 300 306 312 319 323 326 328 331 332 332 332 331 329 327 325 325 324 323 324 325 325 325 324 322 319 314 306 303 304 305 305 302 297 291 284 283 282 280 280 282 285 289 294 296 295 293 293 293 294 294 295 295 296 297 298 299 301 302 304 309 314 315 314 314 313 311 307 301 293 287 282 279 278 279 281 283 283 282 279 275 271 269 269 269
292 300 309 317 321 324 327 330 332 332 330 329 328 326 325 324 323 323 322 322 322 323 323 322 320 319 315 310 307 307 307 306 305 300 292 286 284 283 282 281 281 283 286 291 293 292 290 289 289 290 292 293 295 296 296 296 295 296 298 301 303 306 309 309 310 311 310 307 302 295 289 285 281 279 279 280 281 281 280 279 278 275 273 271 271
290 300 311 317 321 324 326 329 332 331 328 328 328 327 327 326 325 323 322 321 321 322 322 321 319 316 313 312 312 313 311 309 308 304 296 289 285 284 283 283 283 283 285 288 290 289 287 285 285 286 288 290 292 293 293 292 291 291 296 301 302 302 303 304 305 306 306 305 302 297 292 287 283 281 281 281 281 281 280 279 279 278 277 275 273
293 304 312 316 319 322 324 326 327 326 325 326 327 328 328 327 326 324 323 322 321 321 322 321 320 315 311 311 314 315 314 312 311 308 301 293 288 285 284 283 284 284 284 286 288 288 286 284 284 285 287 288 289 289 289 289 287 288 293 300 302 301 301 301 301 301 301 301 301 298 295 291 287 285 285 285 284 284 283 282 281 280 279 277 275
296 304 311 314 317 320 323 324 324 325 326 327 330 329 325 325 326 326 325 323 321 322 323 322 319 315 311 309 311 313 313 312 312 310 306 299 291 286 284 283 284 285 284 285 287 288 286 285 285 288 289 289 289 288 287 286 286 288 292 296 298 299 299 298 298 297 297 297 298 297 295 292 290 288 287 287 288 288 288 287 285 282 280 277 275
297 304 309 313 317 321 324 324 325 327 328 330 331 328 323 324 326 325 324 323 322 323 326 324 319 314 311 309 309 310 311 311 311 311 310 305 297 289 285 285 286 287 287 286 286 287 286 285 287 290 292 291 289 287 285 285 288 292 294 294 295 296 296 296 296 295 294 295 296 296 294 291 289 288 287 287 288 288 288 287 285 283 281 279 276
297 304 310 315 320 323 325 325 326 328 329 329 328 326 324 324 325 325 324 324 323 324 325 325 321 315 310 308 308 309 309 310 310 312 312 308 301 294 289 287 288 289 289 288 287 287 287 289 291 293 293 291 288 285 283 284 289 294 296 297 297 296 295 294 294 293 293 293 294 293 291 288 287 287 287 287 288 288 287 286 284 283 281 280 278
300 307 313 318 322 323 323 324 326 328 328 327 325 324 326 325 324 326 326 324 323 323 322 322 320 315 308 306 307 307 309 309 308 311 313 310 304 297 292 289 288 289 289 288 287 288 289 291 293 294 294 292 287 282 280 282 287 295 300 301 299 297 295 292 291 290 291 292 291 290 288 286 285 286 286 286 287 287 286 284 283 282 281 280 278
304 310 316 319 320 321 323 324 327 328 327 325 323 324 326 326 324 325 324 321 320 321 320 318 317 313 307 304 306 308 309 308 307 309 311 311 307 301 295 291 288 287 287 286 287 288 290 292 293 295 295 293 288 281 278 279 285 295 303 303 299 297 294 291 289 289 289 290 290 289 287 285 285 286 285 285 285 285 283 281 280 280 279 278 276
307 311 316 318 318 320 324 326 328 328 324 322 322 324 325 325 323 323 322 321 319 319 319 317 314 311 307 305 307 308 308 307 306 306 307 308 307 302 297 293 289 287 285 286 287 288 291 293 294 295 294 293 289 282 278 279 285 295 302 302 298 294 291 289 288 289 290 289 288 287 287 286 285 285 284 284 284 282 280 279 278 277 275 274 273
305 309 314 315 316 319 323 325 325 324 321 318 319 322 323 322 320 321 324 322 319 317 317 314 310 307 305 305 306 307 307 306 305 304 306 306 305 302 298 294 291 289 287 285 286 287 290 293 295 295 295 294 291 285 280 279 285 294 299 299 296 293 289 286 286 288 290 289 287 287 287 286 285 284 284 283 281 279 277 275 274 273 273 272 272
298 303 309 310 312 316 319 320 320 319 317 316 318 321 320 319 320 323 324 319 315 315 315 312 307 303 301 302 304 305 305 305 304 304 305 305 303 300 297 293 289 287 284 283 283 286 290 294 297 298 297 296 294 291 286 282 285 291 294 293 292 291 289 287 287 289 291 290 288 289 288 287 286 285 284 281 279 276 275 273 272 271 272 271 271
292 298 302 305 308 311 312 313 315 315 314 315 318 320 319 319 321 323 319 315 314 314 313 310 305 302 300 300 302 303 303 303 302 303 304 303 301 299 296 290 285 282 280 280 282 285 290 295 299 299 298 298 298 296 292 287 285 287 289 288 288 288 288 288 289 291 292 291 290 289 288 287 286 284 282 280 278 276 275 274 273 273 272 271 270
289 293 298 302 305 307 309 311 312 311 312 315 318 319 318 319 321 320 316 315 315 314 312 309 305 303 301 299 300 302 301 301 302 303 303 302 299 296 292 286 282 278 275 277 281 286 291 296 298 299 299 300 300 297 293 288 286 286 286 287 288 289 289 290 292 294 294 292 290 289 289 288 285 282 281 279 279 278 277 276 276 274 272 270 270
289 293 297 301 304 305 307 309 309 309 311 315 317 318 319 319 319 318 316 314 313 312 312 311 308 307 303 300 300 299 300 301 302 302 302 301 300 298 292 287 286 282 278 280 286 290 294 296 298 299 300 301 300 297 292 290 289 289 290 290 291 292 293 293 295 295 294 291 289 289 289 286 283 282 282 280 280 280 279 277 276 274 271 270 271
290 294 298 301 303 304 305 306 306 307 311 314 316 317 318 318 317 315 313 311 309 311 313 312 310 309 305 302 301 299 298 299 298 299 301 301 302 301 294 289 292 294 291 291 293 294 295 296 297 300 301 301 300 298 296 295 294 294 294 294 294 294 295 295 295 294 292 289 288 288 287 285 284 283 282 281 280 280 279 277 276 274 272 271 272
290 293 296 298 300 302 304 304 304 306 310 313 315 316 317 318 318 316 314 312 312 313 313 311 310 308 305 303 302 300 298 297 297 299 300 300 301 300 293 288 293 299 298 296 296 294 294 296 299 301 302 302 302 302 300 299 298 297 297 297 297 296 296 296 295 292 290 288 287 287 288 287 285 283 282 281 280 279 277 276 274 273 273 273 274
288 290 292 295 297 300 302 302 302 305 309 311 314 315 315 317 319 319 317 317 318 317 315 312 310 308 306 303 302 300 299 298 298 299 300 301 302 302 297 294 296 298 298 296 295 295 297 300 302 304 304 304 303 303 302 300 299 298 299 300 299 298 298 297 295 291 290 290 289 288 288 287 285 284 283 281 280 278 276 274 272 272 273 274 274
286 289 292 293 296 299 300 300 300 303 307 310 311 313 314 315 316 318 319 319 318 316 314 312 310 308 306 304 302 301 301 300 300 301 302 305 307 307 305 301 298 297 296 297 298 299 301 304 305 306 305 304 304 304 303 301 301 301 302 301 299 298 297 296 294 292 292 292 291 290 290 290 289 288 286 284 282 280 278 275 273 272 273 273 273
288 291 293 295 297 300 300 299 299 301 305 308 308 308 310 313 314 317 318 317 315 314 313 311 309 306 304 302 301 301 301 301 302 305 307 309 310 309 306 302 298 297 298 299 300 302 304 306 306 306 306 305 305 304 303 303 302 302 302 301 299 297 296 295 294 294 295 294 293 292 294 294 292 291 290 289 286 283 279 276 274 274 274 275 274
Height
5938 5937 5937 5937 5937 5937 5937 5937 5937 5936 5936 5936 5935 5935 5935 5935 5934 5933 5932 5932 5931 5931 5931 5931 5931 5930 5930 5929 5929 5928 5928 5928 5926 5926 5925 5923 5922 5921 5921 5920 5920 5920 5919 5918 5917 5916 5915 5914 5913 5912 5911 5912 5914 5915 5916 5917 5917 5917 5916 5915 5915 5915 5916 5917 5918 5918 5919 5919 5920 5920 5920 5921 5921 5922 5922 5922 5922 5922 5921 5921 5921 5920 5920 5920 5920
5937 5937 5937 5938 5938 5938 5937 5937 5937 5937 5936 5936 5936 5936 5935 5935 5934 5933 5932 5932 5931 5931 5931 5930 5930 5930 5929 5929 5929 5928 5928 5928 5927 5926 5925 5924 5923 5922 5921 5920 5919 5919 5918 5917 5916 5916 5915 5914 5913 5911 5911 5913 5915 5915 5915 5916 5915 5914 5913 5914 5915 5915 5916 5917 5918 5919 5919 5919 5919 5920 5920 5920 5921 5921 5922 5922 5922 5922 5921 5921 5921 5921 5920 5920 5920
5937 5937 5937 5938 5938 5937 5937 5937 5937 5937 5937 5937 5936 5936 5936 5935 5934 5933 5932 5932 5931 5931 5931 5930 5930 5929 5929 5929 5929 5928 5928 5927 5927 5926 5925 5924 5923 5922 5921 5920 5919 5918 5918 5917 5916 5915 5914 5914 5913 5911 5913 5915 5915 5915 5913 5913 5913 5913 5912 5914 5915 5915 5916 5917 5917 5918 5918 5918 5918 5919 5919 5919 5920 5921 5921 5922 5922 5922 5922 5921 5921 5921 5920 5920 5919
5937 5937 5938 5938 5937 5937 5937 5937 5937 5937 5937 5937 5936 5936 5936 5935 5934 5934 5933 5932 5932 5931 5930 5930 5930 5929 5929 5929 5928 5928 5928 5927 5926 5925 5925 5924 5923 5922 5921 5920 5919 5918 5917 5917 5916 5915 5914 5914 5913 5911 5913 5916 5915 5914 5913 5912 5913 5913 5912 5913 5914 5915 5915 5915 5915 5915 5916 5916 5917 5917 5918 5918 5919 5919 5920 5920 5921 5921 5921 5921 5921 5921 5920 5920 5920
5937 5937 5938 5938 5938 5937 5937 5938 5938 5937 5937 5937 5936 5936 5936 5935 5934 5934 5933 5932 5931 5931 5930 5929 5929 5929 5929 5928 5928 5928 5927 5927 5926 5925 5924 5923 5923 5922 5921 5920 5919 5918 5917 5916 5916 5915 5914 5914 5913 5912 5913 5915 5915 5914 5913 5913 5913 5912 5911 5911 5912 5913 5914 5914 5913 5913 5913 5914 5915 5916 5916 5917 5917 5917 5918 5919 5919 5920 5920 5920 5920 5920 5920 5920 5920
5937 5937 5937 5937 5937 5937 5937 5937 5937 5937 5937 5937 5937 5936 5935 5935 5934 5934 5933 5932 5931 5930 5929 5928 5928 5928 5928 5928 5927 5927 5927 5926 5926 5925 5924 5923 5922 5922 5921 5920 5919 5918 5917 5916 5916 5915 5914 5914 5913 5912 5912 5913 5913 5914 5913 5913 5913 5912 5911 5911 5911 5911 5912 5912 5912 5912 5911 5912 5913 5914 5915 5915 5916 5916 5916 5917 5917 5918 5919 5919 5919 5919 5919 5919 5919
5937 5937 5937 5937 5937 5937 5937 5937 5937 5937 5937 5937 5936 5936 5935 5935 5934 5933 5932 5931 5930 5929 5928 5928 5927 5927 5927 5927 5927 5926 5926 5926 5925 5925 5924 5923 5922 5921 5921 5920 5919 5918 5917 5916 5915 5915 5914 5914 5913 5912 5912 5912 5912 5912 5913 5913 5912 5912 5911 5910 5910 5910 5910 5911 5911 5910 5910 5910 5911 5912 5912 5913 5914 5914 5914 5915 5916 5916 5917 5917 5918 5918 5918 5918 5918
5937 5937 5938 5938 5938 5938 5937 5937 5937 5937 5937 5936 5936 5936 5935 5934 5933 5932 5932 5931 5930 5929 5928 5927 5927 5927 5927 5926 5926 5926 5925 5925 5924 5924 5924 5923 5921 5920 5920 5919 5918 5917 5917 5916 5915 5914 5914 5913 5913 5912 5912 5912 5911 5911 5912 5912 5912 5911 5910 5909 5909 5909 5909 5909 5909 5909 5909 5909 5909 5910 5910 5911 5911 5912 5913 5913 5914 5914 5915 5916 5916 5916 5917 5917 5917
5938 5938 5938 5938 5938 5937 5937 5937 5937 5937 5936 5936 5935 5935 5934 5934 5933 5932 5931 5930 5930 5929 5928 5927 5927 5926 5926 5926 5925 5925 5924 5924 5924 5923 5923 5922 5921 5920 5919 5918 5917 5917 5916 5916 5914 5913 5913 5913 5912 5912 5912 5911 5910 5910 5911 5911 5910 5910 5909 5908 5908 5908 5908 5908 5908 5908 5908 5908 5908 5908 5909 5909 5909 5910 5910 5911 5911 5912 5913 5914 5914 5915 5916 5916 5916
5938 5938 5938 5937 5937 5937 5937 5937 5936 5936 5936 5935 5935 5934 5934 5933 5932 5931 5930 5930 5929 5929 5928 5927 5927 5926 5926 5925 5925 5924 5924 5923 5923 5922 5922 5921 5920 5919 5919 5918 5917 5916 5915 5915 5914 5913 5913 5913 5912 5912 5911 5911 5910 5909 5909 5909 5909 5909 5909 5908 5907 5907 5907 5907 5907 5907 5907 5907 5907 5907 5908 5908 5908 5908 5908 5909 5909 5910 5911 5912 5913 5914 5914 5915 5915
5937 5937 5937 5937 5937 5936 5936 5936 5936 5935 5935 5934 5934 5933 5933 5932 5931 5930 5930 5929 5929 5928 5928 5927 5926 5926 5925 5924 5924 5923 5923 5922 5922 5921 5921 5920 5919 5918 5918 5917 5916 5916 5915 5914 5914 5913 5913 5912 5912 5911 5910 5910 5910 5909 5908 5908 5908 5908 5908 5908 5907 5906 5906 5906 5906 5906 5907 5906 5906 5906 5906 5906 5907 5906 5906 5907 5907 5908 5909 5910 5911 5912 5913 5914 5914
5937 5937 5937 5937 5937 5936 5936 5936 5935 5935 5935 5934 5933 5932 5932 5931 5930 5930 5929 5929 5928 5927 5927 5926 5926 5925 5924 5924 5923 5923 5922 5921 5921 5920 5920 5919 5918 5917 5917 5916 5915 5914 5914 5913 5913 5913 5912 5912 5911 5910 5910 5909 5909 5908 5908 5907 5907 5906 5907 5907 5906 5906 5905 5905 5905 5905 5906 5906 5905 5905 5905 5905 5905 5905 5905 5905 5905 5906 5907 5908 5909 5910 5911 5912 5912
5937 5937 5937 5937 5936 5936 5935 5935 5935 5934 5933 5933 5932 5931 5931 5930 5929 5929 5929 5928 5927 5926 5926 5926 5925 5924 5924 5923 5922 5922 5921 5921 5920 5919 5918 5918 5917 5916 5915 5915 5915 5914 5913 5912 5912 5911 5911 5911 5910 5910 5909 5908 5908 5908 5907 5907 5906 5905 5905 5905 5905 5905 5905 5904 5903 5904 5904 5904 5904 5904 5904 5904 5903 5903 5903 5903 5903 5904 5905 5906 5907 5908 5909 5909 5910
5937 5937 5936 5936 5935 5935 5934 5934 5934 5933 5932 5931 5931 5930 5930 5930 5929 5929 5928 5927 5926 5926 5925 5925 5924 5924 5923 5922 5922 5921 5920 5920 5919 5918 5917 5917 5916 5915 5914 5914 5913 5913 5913 5912 5910 5910 5910 5910 5909 5909 5908 5907 5907 5906 5906 5906 5905 5905 5904 5904 5904 5904 5904 5903 5903 5902 5902 5902 5903 5902 5902 5902 5902 5902 5901 5901 5902 5902 5903 5904 5905 5905 5906 5907 5907
5936 5936 5935 5934 5934 5934 5933 5933 5932 5931 5931 5931 5930 5930 5929 5929 5928 5928 5927 5926 5926 5925 5924 5924 5923 5923 5923 5922 5921 5920 5920 5919 5918 5918 5916 5916 5915 5914 5913 5913 5912 5911 5912 5911 5910 5909 5908 5908 5908 5907 5907 5906 5905 5905 5905 5905 5904 5904 5903 5903 5903 5903 5903 5903 5902 5902 5901 5901 5901 5901 5900 5900 5900 5900 5900 5900 5900 5900 5901 5901 5902 5902 5903 5904 5904
5935 5934 5934 5933 5933 5933 5932 5931 5931 5930 5930 5930 5930 5929 5929 5928 5927 5926 5925 5925 5924 5924 5923 5923 5922 5922 5922 5921 5921 5920 5919 5918 5918 5917 5916 5914 5914 5913 5912 5911 5910 5910 5910 5909 5909 5908 5908 5907 5906 5906 5905 5905 5904 5904 5904 5904 5903 5903 5903 5902 5902 5902 5902 5902 5902 5901 5900 5900 5899 5899 5899 5898 5898 5898 5898 5898 5898 5898 5898 5898 5899 5899 5900 5901 5902
5934 5933 5933 5932 5932 5931 5931 5930 5930 5929 5929 5929 5929 5928 5928 5926 5925 5925 5924 5923 5923 5922 5922 5921 5921 5921 5921 5920 5920 5919 5918 5917 5917 5916 5915 5914 5913 5912 5911 5910 5909 5908 5908 5908 5907 5906 5906 5906 5905 5905 5904 5903 5903 5902 5902 5902 5902 5902 5902 5902 5901 5901 5901 5901 5901 5900 5900 5899 5898 5898 5897 5897 5896 5896 5896 5896 5896 5896 5896 5896 5896 5896 5897 5898 5899
5933 5932 5932 5931 5931 5930 5929 5929 5929 5929 5929 5928 5928 5927 5926 5925 5924 5923 5923 5922 5922 5921 5920 5920 5920 5920 5920 5919 5919 5918 5917 5916 5916 5915 5915 5913 5912 5911 5910 5909 5908 5907 5906 5906 5906 5904 5904 5904 5904 5904 5903 5902 5902 5901 5901 5901 5900 5900 5900 5900 5900 5900 5900 5899 5899 5899 5899 5898 5897 5896 5896 5895 5895 5895 5894 5894 5893 5894 5894 5894 5894 5894 5894 5894 5895
5932 5932 5931 5931 5930 5929 5929 5928 5928 5928 5928 5927 5927 5926 5925 5924 5923 5922 5922 5921 5920 5920 5919 5919 5918 5918 5918 5917 5917 5916 5915 5915 5914 5914 5913 5912 5911 5910 5908 5907 5906 5906 5905 5904 5905 5903 5903 5903 5902 5902 5902 5901 5900 5900 5900 5899 5899 5899 5898 5898 5898 5898 5898 5898 5898 5897 5897 5897 5896 5895 5895 5894 5893 5893 5892 5892 5891 5891 5891 5891 5891 5891 5891 5892 5892
5931 5931 5930 5930 5929 5929 5928 5927 5927 5927 5927 5926 5925 5925 5924 5923 5922 5921 5920 5919 5919 5918 5917 5917 5917 5916 5916 5916 5915 5914 5914 5913 5913 5912 5911 5911 5910 5909 5908 5906 5904 5904 5904 5903 5903 5902 5901 5901 5900 5900 5900 5899 5898 5898 5898 5898 5897 5897 5897 5897 5896 5896 5896 5896 5896 5896 5895 5895 5895 5894 5893 5893 5892 5891 5891 5890 5890 5889 5889 5889 5889 5889 5889 5889 5889
5931 5930 5929 5929 5928 5928 5927 5927 5926 5926 5925 5925 5924 5923 5923 5922 5921 5920 5919 5918 5917 5916 5916 5915 5915 5914 5914 5913 5913 5912 5912 5911 5911 5910 5909 5909 5908 5908 5907 5905 5903 5902 5902 5901 5901 5900 5900 5900 5899 5898 5898 5898 5897 5896 5896 5896 5895 5895 5895 5895 5894 5894 5894 5894 5894 5894 5894 5893 5893 5892 5892 5891 5890 5890 5889 5888 5888 5887 5887 5887 5886 5886 5886 5886 5886
5929 5929 5928 5928 5927 5927 5926 5926 5925 5925 5924 5923 5923 5922 5921 5920 5919 5918 5917 5916 5915 5915 5914 5913 5913 5912 5912 5911 5911 5910 5910 5909 5908 5908 5907 5907 5906 5905 5905 5904 5903 5901 5900 5900 5899 5899 5898 5899 5898 5897 5896 5895 5895 5894 5894 5893 5893 5893 5893 5893 5892 5892 5892 5891 5891 5891 5891 5891 5890 5890 5890 5889 5888 5888 5887 5886 5886 5885 5885 5884 5884 5883 5883 5883 5883
5928 5928 5927 5926 5926 5926 5925 5925 5924 5924 5923 5922 5921 5920 5919 5919 5917 5917 5916 5914 5913 5913 5912 5912 5911 5910 5910 5909 5909 5908 5907 5907 5906 5906 5905 5905 5904 5903 5902 5902 5901 5900 5898 5897 5897 5897 5897 5896 5896 5896 5895 5894 5893 5892 5892 5891 5891 5891 5891 5891 5890 5890 5889 5889 5889 5888 5888 5888 5888 5887 5887 5886 5886 5885 5885 5884 5883 5882 5882 5881 5881 5881 5880 5880 5880
5927 5926 5926 5925 5925 5924 5924 5923 5923 5922 5921 5920 5919 5918 5917 5916 5915 5914 5913 5912 5911 5911 5910 5910 5909 5908 5907 5907 5906 5906 5905 5905 5904 5903 5903 5902 5902 5901 5900 5899 5899 5898 5897 5896 5895 5895 5895 5894 5894 5893 5893 5893 5892 5891 5890 5889 5888 5888 5888 5888 5888 5887 5887 5886 5886 5885 5885 5884 5884 5884 5883 5883 5882 5882 5881 5881 5880 5879 5879 5878 5878 5877 5877 5877 5877
5925 5925 5925 5924 5924 5923 5922 5922 5921 5920 5919 5918 5917 5916 5915 5914 5913 5912 5911 5910 5909 5909 5908 5907 5907 5906 5905 5905 5904 5903 5903 5902 5901 5901 5900 5900 5899 5899 5898 5897 5897 5897 5896 5895 5894 5894 5893 5892 5892 5891 5891 5891 5890 5889 5888 5887 5886 5886 5885 5885 5884 5884 5883 5883 5882 5882 5881 5880 5880 5880 5879 5879 5878 5878 5877 5877 5876 5876 5875 5874 5874 5874 5874 5874 5873
5923 5923 5923 5923 5923 5922 5921 5920 5919 5918 5917 5916 5915 5914 5913 5912 5911 5910 5909 5908 5907 5906 5905 5905 5904 5903 5903 5902 5902 5901 5900 5899 5899 5898 5898 5897 5897 5896 5896 5895 5895 5894 5894 5893 5893 5893 5892 5891 5890 5889 5888 5887 5887 5886 5885 5885 5884 5883 5882 5882 5881 5880 5880 5879 5878 5878 5877 5876 5876 5875 5875 5875 5874 5873 5873 5872 5872 5871 5871 5870 5870 5870 5870 5870 5870
5922 5921 5921 5921 5921 5921 5919 5918 5917 5916 5914 5914 5913 5913 5912 5911 5910 5909 5908 5906 5905 5904 5903 5902 5901 5901 5900 5900 5899 5898 5897 5896 5895 5895 5895 5894 5894 5893 5893 5892 5892 5891 5891 5890 5890 5891 5891 5890 5889 5887 5886 5885 5884 5883 5883 5882 5882 5881 5880 5879 5878 5877 5876 5875 5874 5873 5873 5872 5871 5871 5870 5870 5870 5869 5869 5868 5868 5867 5867 5866 5866 5865 5865 5865 5865
5920 5920 5919 5919 5919 5919 5918 5916 5915 5914 5913 5912 5911 5911 5910 5909 5908 5907 5906 5904 5903 5902 5900 5900 5899 5898 5898 5897 5896 5895 5894 5893 5893 5892 5892 5892 5891 5891 5890 5889 5889 5888 5888 5887 5886 5887 5887 5887 5887 5886 5884 5883 5883 5881 5881 5880 5879 5878 5877 5876 5875 5874 5872 5871 5870 5869 5869 5868 5867 5866 5866 5865 5865 5864 5864 5864 5863 5863 5862 5862 5861 5861 5861 5861 5861
5918 5918 5918 5917 5917 5917 5916 5915 5913 5913 5912 5910 5910 5909 5909 5908 5906 5905 5904 5902 5901 5900 5899 5897 5896 5895 5895 5894 5893 5892 5892 5891 5890 5889 5889 5889 5888 5887 5887 5886 5886 5885 5884 5883 5882 5883 5883 5883 5883 5882 5881 5881 5880 5879 5878 5877 5876 5874 5873 5872 5871 5869 5868 5867 5866 5866 5865 5864 5863 5862 5861 5861 5860 5860 5859 5859 5858 5858 5858 5857 5857 5857 5857 5857 5856
5916 5916 5916 5916 5915 5915 5914 5913 5912 5911 5910 5909 5908 5907 5907 5906 5905 5903 5902 5900 5899 5898 5897 5895 5894 5893 5892 5891 5890 5889 5888 5888 5887 5887 5886 5885 5885 5884 5883 5883 5883 5883 5882 5880 5879 5878 5878 5878 5878 5878 5878 5877 5876 5875 5873 5872 5871 5870 5868 5867 5865 5864 5863 5862 5862 5861 5860 5860 5859 5857 5857 5856 5856 5855 5854 5854 5853 5853 5853 5852 5852 5852 5852 5852 5852
5914 5914 5914 5914 5914 5913 5913 5912 5910 5909 5908 5907 5906 5905 5904 5903 5902 5901 5900 5898 5897 5895 5894 5893 5892 5891 5889 5888 5887 5886 5885 5884 5884 5883 5882 5882 5881 5880 5880 5880 5880 5879 5879 5878 5876 5874 5874 5873 5872 5872 5872 5871 5870 5869 5868 5867 5866 5864 5863 5862 5860 5859 5858 5857 5857 5856 5856 5855 5854 5853 5852 5851 5851 5851 5850 5850 5849 5848 5848 5848 5847 5847 5848 5848 5848
5912 5912 5912 5912 5912 5911 5911 5910 5908 5907 5906 5905 5904 5903 5902 5901 5900 5898 5897 5895 5894 5893 5891 5891 5889 5888 5887 5885 5884 5883 5882 5881 5880 5879 5879 5878 5877 5877 5877 5876 5876 5876 5876 5875 5874 5871 5870 5869 5868 5866 5866 5865 5864 5864 5864 5862 5861 5860 5859 5858 5857 5855 5854 5853 5852 5851 5850 5850 5849 5849 5848 5847 5846 5846 5846 5845 5845 5844 5843 5843 5843 5842 5842 5843 5843
5911 5911 5910 5910 5910 5909 5908 5907 5906 5905 5903 5903 5902 5901 5899 5898 5897 5896 5894 5892 5891 5890 5889 5887 5886 5885 5884 5883 5882 5880 5879 5878 5877 5876 5875 5875 5874 5874 5873 5873 5873 5872 5872 5872 5871 5868 5866 5865 5864 5863 5862 5861 5860 5860 5859 5859 5858 5857 5855 5854 5854 5852 5851 5849 5847 5846 5845 5845 5844 5844 5843 5842 5842 5841 5841 5841 5840 5839 5839 5838 5838 5837 5837 5837 5837
5909 5909 5909 5908 5908 5907 5906 5905 5904 5902 5901 5900 5899 5898 5897 5896 5894 5893 5891 5890 5888 5887 5885 5884 5883 5882 5881 5880 5879 5877 5876 5875 5874 5873 5872 5872 5871 5871 5870 5869 5869 5868 5868 5867 5866 5865 5863 5862 5861 5860 5859 5858 5857 5856 5856 5855 5854 5853 5852 5851 5849 5849 5847 5845 5843 5842 5841 5840 5839 5839 5838 5837 5836 5836 5835 5835 5834 5834 5833 5832 5832 5832 5831 5831 5831
5908 5907 5907 5907 5906 5905 5904 5903 5902 5900 5899 5897 5896 5895 5894 5892 5891 5890 5888 5886 5884 5883 5882 5880 5879 5878 5877 5876 5875 5874 5873 5871 5871 5870 5869 5869 5868 5867 5867 5866 5865 5864 5863 5863 5862 5862 5860 5859 5858 5857 5856 5855 5854 5853 5853 5852 5851 5850 5849 5847 5846 5844 5843 5841 5839 5837 5836 5835 5834 5833 5832 5831 5830 5829 5828 5828 5827 5826 5826 5826 5825 5825 5825 5824 5824
5906 5905 5905 5905 5904 5903 5902 5900 5899 5898 5896 5895 5893 5892 5891 5889 5888 5888 5886 5884 5882 5880 5878 5877 5876 5874 5873 5872 5871 5870 5869 5868 5867 5867 5866 5866 5865 5864 5863 5862 5861 5860 5860 5859 5858 5858 5857 5855 5854 5853 5852 5851 5850 5849 5849 5848 5847 5846 5845 5844 5842 5840 5838 5837 5835 5833 5831 5829 5828 5827 5826 5825 5823 5822 5821 5820 5819 5818 5818 5817 5817 5817 5817 5817 5817
5904 5903 5903 5902 5902 5901 5899 5898 5896 5895 5893 5891 5890 5888 5887 5887 5886 5885 5883 5882 5879 5877 5875 5874 5872 5871 5870 5869 5867 5866 5865 5864 5863 5863 5863 5862 5861 5861 5860 5859 5858 5857 5856 5855 5854 5853 5852 5851 5850 5849 5848 5847 5846 5845 5844 5843 5842 5841 5840 5839 5838 5836 5834 5832 5830 5828 5826 5824 5823 5821 5820 5818 5817 5816 5814 5813 5812 5811 5810 5809 5809 5808 5808 5808 5808
5902 5901 5900 5900 5899 5898 5897 5895 5894 5892 5890 5888 5886 5885 5885 5883 5882 5882 5880 5879 5877 5875 5872 5871 5869 5868 5866 5864 5863 5862 5861 5860 5859 5858 5858 5858 5857 5857 5856 5855 5854 5853 5852 5850 5849 5849 5848 5847 5846 5845 5843 5842 5841 5840 5839 5838 5838 5837 5835 5834 5832 5830 5828 5826 5824 5823 5821 5820 5818 5816 5814 5812 5811 5809 5808 5807 5805 5804 5803 5802 5801 5800 5799 5799 5799
5899 5899 5898 5897 5896 5895 5894 5892 5891 5889 5887 5885 5883 5883 5882 5880 5878 5878 5877 5875 5874 5872 5869 5867 5865 5864 5862 5860 5859 5858 5856 5855 5854 5854 5853 5853 5852 5852 5851 5850 5849 5848 5847 5846 5845 5844 5843 5842 5841 5840 5839 5838 5837 5835 5834 5833 5832 5831 5830 5828 5826 5823 5821 5820 5819 5817 5815 5814 5812 5810 5808 5806 5805 5803 5802 5800 5798 5796 5795 5793 5792 5791 5791 5790 5790
5896 5896 5896 5895 5893 5892 5891 5889 5888 5887 5885 5882 5879 5879 5879 5877 5875 5874 5873 5871 5870 5868 5866 5863 5861 5859 5858 5856 5855 5854 5852 5851 5850 5850 5849 5848 5847 5847 5846 5845 5844 5843 5842 5841 5840 5839 5839 5838 5836 5835 5834 5833 5831 5829 5828 5827 5826 5825 5823 5822 5821 5817 5815 5813 5812 5811 5809 5807 5805 5803 5801 5800 5798 5796 5794 5793 5791 5789 5787 5785 5784 5783 5782 5782 5782
5892 5893 5893 5892 5890 5889 5887 5886 5885 5883 5881 5879 5877 5875 5875 5874 5872 5871 5870 5868 5866 5864 5862 5859 5857 5855 5854 5853 5851 5850 5848 5847 5846 5846 5845 5844 5843 5841 5840 5839 5839 5838 5837 5836 5835 5834 5833 5832 5831 5829 5829 5827 5825 5823 5822 5820 5819 5818 5816 5815 5814 5812 5809 5807 5805 5803 5801 5800 5798 5796 5794 5792 5791 5789 5787 5785 5783 5780 5778 5777 5776 5775 5774 5774 5774
5889 5889 5889 5889 5887 5886 5884 5883 5881 5880 5878 5876 5874 5873 5872 5870 5868 5867 5866 5863 5861 5859 5857 5855 5853 5851 5850 5849 5848 5846 5845 5844 5842 5841 5841 5840 5838 5836 5834 5833 5832 5832 5832 5831 5830 5829 5828 5827 5825 5824 5822 5821 5819 5817 5816 5814 5812 5811 5810 5808 5806 5804 5802 5800 5798 5796 5793 5792 5790 5789 5787 5784 5782 5781 5779 5777 5774 5771 5770 5769 5768 5767 5766 5765 5765
5887 5887 5887 5886 5885 5883 5882 5880 5879 5877 5875 5873 5871 5870 5868 5865 5863 5862 5860 5858 5855 5854 5852 5850 5849 5847 5846 5845 5844 5843 5842 5840 5838 5838 5837 5836 5834 5831 5829 5828 5827 5826 5826 5825 5824 5823 5822 5820 5819 5817 5816 5815 5813 5811 5809 5808 5807 5805 5803 5800 5798 5797 5794 5793 5791 5789 5786 5783 5782 5781 5779 5775 5773 5773 5770 5767 5765 5763 5762 5761 5760 5759 5759 5758 5757
5884 5884 5883 5882 5881 5880 5879 5878 5876 5874 5872 5869 5868 5866 5864 5861 5859 5858 5855 5853 5851 5849 5847 5846 5844 5843 5842 5841 5840 5839 5838 5836 5834 5834 5833 5831 5828 5825 5823 5821 5820 5819 5818 5818 5817 5816 5815 5814 5813 5811 5810 5809 5807 5804 5803 5801 5800 5798 5795 5793 5791 5789 5787 5785 5783 5781 5778 5775 5773 5772 5770 5767 5764 5763 5761 5758 5756 5755 5754 5753 5752 5752 5751 5750 5749
5881 5881 5880 5879 5878 5876 5875 5874 5872 5870 5868 5866 5864 5862 5859 5857 5855 5853 5851 5849 5847 5845 5843 5841 5840 5839 5838 5837 5836 5836 5833 5831 5830 5828 5827 5825 5822 5819 5816 5813 5811 5811 5811 5810 5810 5810 5809 5808 5807 5805 5803 5802 5800 5797 5795 5793 5791 5789 5788 5785 5783 5780 5778 5776 5774 5772 5769 5766 5764 5763 5762 5759 5755 5754 5753 5751 5749 5748 5747 5746 5744 5743 5742 5741 5741
5877 5877 5876 5875 5874 5873 5871 5870 5868 5866 5864 5862 5860 5858 5855 5852 5849 5848 5847 5845 5843 5841 5839 5838 5836 5835 5834 5833 5832 5831 5829 5827 5825 5823 5821 5820 5817 5813 5811 5809 5807 5806 5806 5806 5805 5805 5804 5802 5800 5799 5797 5795 5793 5790 5787 5785 5784 5782 5780 5778 5775 5772 5770 5767 5765 5763 5760 5757 5754 5754 5755 5752 5747 5747 5746 5744 5742 5741 5740 5738 5736 5735 5734 5734 5734
5872 5872 5872 5871 5869 5868 5867 5866 5864 5862 5861 5859 5858 5855 5852 5847 5844 5844 5844 5842 5839 5837 5835 5834 5832 5831 5830 5828 5827 5826 5825 5822 5820 5818 5816 5815 5812 5809 5806 5806 5805 5804 5802 5802 5801 5800 5798 5796 5794 5793 5790 5788 5786 5783 5781 5778 5776 5774 5772 5770 5768 5764 5761 5759 5757 5755 5752 5748 5745 5745 5747 5744 5741 5740 5739 5737 5735 5734 5732 5731 5729 5728 5727 5726 5726
5867 5867 5867 5866 5864 5863 5862 5861 5859 5858 5858 5856 5855 5852 5848 5843 5841 5841 5839 5837 5835 5834 5832 5829 5828 5826 5825 5823 5822 5821 5820 5817 5815 5813 5811 5810 5808 5805 5803 5802 5801 5800 5798 5797 5796 5794 5792 5790 5788 5786 5783 5780 5778 5776 5773 5771 5769 5767 5765 5763 5760 5756 5754 5752 5750 5747 5743 5741 5738 5737 5738 5737 5734 5733 5732 5730 5729 5727 5725 5724 5722 5721 5720 5719 5718
5863 5863 5862 5861 5860 5859 5858 5857 5855 5855 5854 5853 5851 5848 5844 5840 5838 5836 5834 5832 5831 5829 5827 5824 5823 5822 5821 5819 5817 5816 5815 5813 5811 5808 5806 5805 5803 5801 5799 5798 5797 5796 5794 5792 5790 5788 5785 5783 5781 5779 5776 5773 5771 5769 5766 5764 5761 5759 5758 5755 5751 5748 5746 5744 5743 5740 5737 5735 5732 5730 5730 5730 5728 5726 5725 5724 5722 5720 5719 5717 5715 5714 5713 5712 5710
5860 5859 5859 5858 5857 5856 5854 5853 5852 5851 5851 5849 5846 5843 5840 5837 5835 5833 5830 5829 5827 5825 5822 5820 5818 5817 5816 5815 5812 5811 5809 5808 5806 5804 5802 5801 5799 5797 5795 5794 5792 5790 5788 5786 5784 5782 5779 5777 5774 5772 5769 5766 5764 5762 5759 5757 5754 5751 5750 5747 5743 5740 5738 5737 5735 5733 5732 5730 5726 5723 5723 5723 5721 5719 5717 5716 5715 5713 5711 5710 5708 5707 5706 5704 5703
5857 5856 5855 5854 5853 5852 5850 5849 5848 5847 5846 5844 5842 5839 5836 5834 5831 5829 5827 5825 5822 5821 5819 5816 5814 5812 5811 5809 5807 5806 5804 5802 5801 5800 5799 5797 5795 5793 5790 5788 5786 5784 5782 5780 5778 5776 5774 5771 5768 5765 5762 5759 5756 5754 5751 5749 5746 5744 5742 5739 5737 5733 5731 5729 5728 5727 5726 5724 5719 5716 5716 5715 5713 5711 5709 5708 5708 5707 5705 5703 5701 5700 5699 5697 5696